Regional Weather Roundup
Issued by NWS

Home | Current Version | Previous Version | Graphics & Text | Print | Product List | Glossary On
Versions: 1 2 3 4 5 6 7 8 9 10 11 12 13 14 15 16 17 18 19 20 21 22 23 24 25 26 27 28 29 30 31 32 33 34 35 36 37 38 39 40 41 42 43 44 45 46 47 48 49 50
000
ASUS43 KIND 191259
RWRIN

WEATHER ROUNDUP FOR INDIANA
NATIONAL WEATHER SERVICE INDIANAPOLIS IN
900 AM EDT FRI SEP 19 2014

NOTE: "FAIR" INDICATES FEW OR NO CLOUDS BELOW 12,000 FEET WITH NO
SIGNIFICANT WEATHER AND/OR OBSTRUCTIONS TO VISIBILITY.

* - STATION DOES NOT REPORT WEATHER SUCH AS PRECIPITATION OR FOG.

+ - STATION NOT QUALITY CONTROLLED BY THE NATIONAL WEATHER SERVICE.
    USE DATA WITH CAUTION...ESPECIALLY DEWPOINT AND RELATIVE
    HUMIDITY OBSERVATIONS.

INZ001>003-010>013-019-020-191400-
NORTHWEST INDIANA

CITY           SKY/WX    TMP DP  RH WIND       PRES   REMARKS
VALPARAISO     SUNNY     52  50  93 E5        30.20S FOG

$$

LMZ046-743>745-191400-
SOUTHERN LAKE MICHIGAN

STATION/POSITION TIME  TEMP WIND        PRES
                       AIR  DIR/SP/G
                 (UTC) (F)  (DEG/KT/KT) (MB)
MICHIGAN CITY    1200   55  120/ 10/ 15   N/A

$$

INZ004-005-014>016-021>024-191400-
NORTH CENTRAL INDIANA

CITY           SKY/WX    TMP DP  RH WIND       PRES   REMARKS
ELKHART        SUNNY     52  52 100 SE6       30.22S
GOSHEN         SUNNY     54  50  86 SE8       30.22S
SOUTH BEND     SUNNY     54  51  90 E9        30.22S FOG
WARSAW +       SUNNY     52  52 100 E10       30.22S FOG

$$

INZ006>009-017-018-025>027-191400-
NORTHEAST INDIANA

CITY           SKY/WX    TMP DP  RH WIND       PRES   REMARKS
ANGOLA *+      SUNNY     52  48  87 SE7       30.23F
FORT WAYNE     CLOUDY    51  50  96 E8        30.24S FOG

$$

INZ028-029-035-036-043>045-051>053-191400-
WEST CENTRAL INDIANA

CITY           SKY/WX    TMP DP  RH WIND       PRES   REMARKS
GREENCASTLE +  SUNNY     52  48  87 E6        30.18S
LAFAYETTE      SUNNY     52  50  93 VRB5      30.19R
TERRE HAUTE    SUNNY     55  50  83 CALM      30.17R

$$

INZ030>032-037>040-046>048-054>057-064-065-191400-
CENTRAL INDIANA

CITY           SKY/WX    TMP DP  RH WIND       PRES   REMARKS
ANDERSON       SUNNY     54  50  87 CALM      30.22
FRANKFORT +    SUNNY    N/A N/A N/A E5        30.20S
INDIANAPOLIS   NOT AVBL
-EAGLE CREEK   SUNNY     55  49  80 E5        30.18R
KOKOMO *+      SUNNY     52  48  87 E5        30.21S
MT COMFORT *+  SUNNY     55  50  82 E7        30.20R
SHELBYVILLE    SUNNY     55  50  83 E7        30.18R

$$

INZ033-034-041-042-049-050-058-059-191400-
EAST CENTRAL INDIANA

CITY           SKY/WX    TMP DP  RH WIND       PRES   REMARKS
MUNCIE         SUNNY     52  49  89 E6        30.21R

$$

INZ060-061-067>069-081>083-085>088-191400-
SOUTHWEST INDIANA

CITY           SKY/WX    TMP DP  RH WIND       PRES   REMARKS
EVANSVILLE     SUNNY     58  51  78 NE6       30.12R

$$

INZ062-063-066-070>080-084-089>092-191400-
SOUTH CENTRAL AND SOUTHEAST INDIANA

CITY           SKY/WX    TMP DP  RH WIND       PRES   REMARKS
BLOOMINGTON    SUNNY     55  49  80 CALM      30.17R

$$



USA.gov is the U.S. government's official web portal to all federal, state and local government web resources and services.